Regional Weather Roundup
Issued by NWS

Home | Current Version | Previous Version | Graphics & Text | Print | Product List | Glossary On
Versions: 1 2 3 4 5 6 7 8 9 10 11 12 13 14 15 16 17 18 19 20 21 22 23 24 25 26 27 28 29 30 31 32 33 34 35 36 37 38 39 40 41 42 43 44 45 46 47 48 49 50
000
ASUS45 KCYS 171110
RWRWY

WYOMING REGIONAL WEATHER ROUNDUP
NATIONAL WEATHER SERVICE CHEYENNE WY
400 AM MST WED JAN 17 2018

NOTE:  "FAIR" INDICATES FEW OR NO CLOUDS BELOW 12,000 FEET
WITH NO SIGNIFICANT WEATHER AND/OR OBSTRUCTIONS TO VISIBILITY.

WYZ001-171200-
YELLOWSTONE NATIONAL PARK

CITY           SKY/WX    TMP DP  RH WIND       PRES   REMARKS
LK YELLOWSTONE   N/A      9   6  88 CALM      30.39R
W YELLOWSTONE  NOT AVBL

$$
WYZ002>013-054>058-071-098>099-171200-
NORTHERN WYOMING

CITY           SKY/WX    TMP DP  RH WIND       PRES   REMARKS
JACKSON        CLOUDY     7   4  87 N7        30.42S WCI  -5
CODY           FAIR      18  10  71 E5        30.24R WCI  11
GREYBULL       FAIR      -3  -7  82 NW8       30.29R WCI -18
WORLAND        FAIR      -1  -4  87 W6        30.25F WCI -13
SHERIDAN       FAIR      16   5  62 N5        30.20S WCI   9
BUFFALO        FAIR      36   7  29 NW10      30.19S WCI  28
GILLETTE         N/A     25   7  46 W6        30.19R WCI  18
HULETT         FAIR      23   5  46 SW7       30.19F WCI  15
NEWCASTLE      FAIR      10   0  61 N7        30.22S WCI   0

$$
WYZ014>020-022>026-101>103-171200-
CENTRAL WYOMING

CITY           SKY/WX    TMP DP  RH WIND       PRES   REMARKS
BIG PINEY      FAIR      10   5  80 E5        30.32R WCI   2
PINEDALE       FAIR       3  -2  78 CALM      30.33R
DUBOIS         FAIR      32  14  47 W25G37    30.24R WCI  19
LANDER         FAIR      10   7  87 NW5       30.26S WCI   2
RIVERTON       FAIR       7   2  80 W5        30.27S WCI  -2
CASPER         FAIR      28   9  44 S22       30.22S WCI  14
DOUGLAS        FAIR       4   1  88 N7        30.22S WCI  -8

$$
WYZ021-027>030-104>119-171200-
SOUTHERN WYOMING

CITY           SKY/WX    TMP DP  RH WIND       PRES   REMARKS
EVANSTON       CLOUDY    29  19  66 CALM      30.33S
FORT BRIDGER   CLOUDY    33  21  62 W12       30.35R WCI  24
ROCK SPRINGS   FAIR      19   9  65 W5        30.30S WCI  12
DIXON            N/A     15   2  54 E8        30.36F WCI   4
RAWLINS        FAIR      17   4  56 N3        30.30R
SARATOGA       FAIR      10   0  61 CALM      30.29F
LARAMIE        FAIR       8  -4  58 E5        30.23S WCI   0
CHEYENNE       FAIR      18   1  47 CALM      30.19S
TORRINGTON     FAIR       4   1  88 NW7       30.22F WCI  -8

$$



USA.gov is the U.S. government's official web portal to all federal, state and local government web resources and services.